Time,TemperatureF,DewpointF,PressureIn,WindDirection,WindDirectionDegrees,WindSpeedMPH,WindSpeedGustMPH,Humidity,HourlyPrecipIn,Conditions,Clouds,dailyrainin,SoftwareType,DateUTC
2015-01-31 00:01:00,11.9,9.0,30.42,North,349,1.0,3.0,88,0.00,,,0.00,VWS V14.01,2015-01-31 05:01:00,
2015-01-31 00:06:00,11.9,9.0,30.42,North,349,1.0,2.0,88,0.00,,,0.00,VWS V14.01,2015-01-31 05:06:00,
2015-01-31 00:11:00,12.0,8.9,30.42,North,349,1.0,2.0,87,0.00,,,0.00,VWS V14.01,2015-01-31 05:11:00,
2015-01-31 00:16:00,12.0,8.9,30.42,North,349,1.0,2.0,87,0.00,,,0.00,VWS V14.01,2015-01-31 05:16:00,
2015-01-31 00:21:00,12.1,8.7,30.42,North,349,1.0,2.0,86,0.00,,,0.00,VWS V14.01,2015-01-31 05:21:00,
2015-01-31 00:26:00,12.1,8.5,30.42,North,349,1.0,2.0,85,0.00,,,0.00,VWS V14.01,2015-01-31 05:26:00,
2015-01-31 00:31:00,12.2,8.8,30.42,North,349,1.0,2.0,86,0.00,,,0.00,VWS V14.01,2015-01-31 05:31:00,
2015-01-31 00:36:00,12.2,8.8,30.42,North,349,1.0,2.0,86,0.00,,,0.00,VWS V14.01,2015-01-31 05:36:00,
2015-01-31 00:41:00,12.1,9.0,30.42,North,349,1.0,2.0,87,0.00,,,0.00,VWS V14.01,2015-01-31 05:41:00,
2015-01-31 00:46:00,12.0,8.9,30.42,North,349,1.0,2.0,87,0.00,,,0.00,VWS V14.01,2015-01-31 05:46:00,
2015-01-31 00:51:00,11.8,8.7,30.42,North,349,1.0,2.0,87,0.00,,,0.00,VWS V14.01,2015-01-31 05:51:00,
2015-01-31 00:56:00,11.6,8.5,30.42,North,349,1.0,2.0,87,0.00,,,0.00,VWS V14.01,2015-01-31 05:56:00,
2015-01-31 01:01:00,11.4,8.3,30.41,North,349,1.0,2.0,87,0.00,,,0.00,VWS V14.01,2015-01-31 06:01:00,
2015-01-31 01:06:00,11.2,8.1,30.41,North,349,1.0,3.0,87,0.00,,,0.00,VWS V14.01,2015-01-31 06:06:00,
2015-01-31 01:11:00,11.1,8.2,30.41,North,349,1.0,3.0,88,0.00,,,0.00,VWS V14.01,2015-01-31 06:11:00,
2015-01-31 01:16:00,10.9,8.1,30.40,North,349,1.0,3.0,88,0.00,,,0.00,VWS V14.01,2015-01-31 06:16:00,
2015-01-31 01:21:00,10.8,8.2,30.40,North,349,1.0,3.0,89,0.00,,,0.00,VWS V14.01,2015-01-31 06:21:00,
2015-01-31 01:26:00,10.9,8.3,30.40,North,349,1.0,3.0,89,0.00,,,0.00,VWS V14.01,2015-01-31 06:26:00,
2015-01-31 01:32:00,10.8,8.4,30.40,North,349,1.0,2.0,90,0.00,,,0.00,VWS V14.01,2015-01-31 06:32:00,
2015-01-31 01:37:00,10.8,8.4,30.40,North,349,1.0,2.0,90,0.00,,,0.00,VWS V14.01,2015-01-31 06:37:00,
2015-01-31 01:42:00,10.7,8.4,30.40,North,349,1.0,2.0,90,0.00,,,0.00,VWS V14.01,2015-01-31 06:42:00,
2015-01-31 01:47:00,10.6,8.0,30.40,North,349,1.0,2.0,89,0.00,,,0.00,VWS V14.01,2015-01-31 06:47:00,
2015-01-31 01:52:00,10.5,7.9,30.40,North,349,1.0,2.0,89,0.00,,,0.00,VWS V14.01,2015-01-31 06:52:00,
2015-01-31 01:57:00,10.5,7.9,30.40,North,349,1.0,2.0,89,0.00,,,0.00,VWS V14.01,2015-01-31 06:57:00,
2015-01-31 02:02:00,10.5,7.9,30.40,North,349,1.0,2.0,89,0.00,,,0.00,VWS V14.01,2015-01-31 07:02:00,
2015-01-31 02:07:00,10.4,8.1,30.40,North,349,1.0,3.0,90,0.00,,,0.00,VWS V14.01,2015-01-31 07:07:00,
2015-01-31 02:12:00,10.4,8.1,30.39,North,349,1.0,3.0,90,0.00,,,0.00,VWS V14.01,2015-01-31 07:12:00,
2015-01-31 02:17:00,10.3,8.0,30.39,North,349,1.0,3.0,90,0.00,,,0.00,VWS V14.01,2015-01-31 07:17:00,
2015-01-31 02:22:00,10.2,7.9,30.40,North,349,1.0,3.0,90,0.00,,,0.00,VWS V14.01,2015-01-31 07:22:00,
2015-01-31 02:27:00,10.1,7.8,30.40,North,349,1.0,3.0,90,0.00,,,0.00,VWS V14.01,2015-01-31 07:27:00,
2015-01-31 02:32:00,10.0,7.7,30.40,North,349,1.0,2.0,90,0.00,,,0.00,VWS V14.01,2015-01-31 07:32:00,
2015-01-31 02:37:00,9.9,7.6,30.40,North,349,1.0,2.0,90,0.00,,,0.00,VWS V14.01,2015-01-31 07:37:00,
2015-01-31 02:42:00,9.7,7.4,30.40,North,349,1.0,2.0,90,0.00,,,0.00,VWS V14.01,2015-01-31 07:42:00,
2015-01-31 02:47:00,9.6,7.3,30.39,North,349,1.0,2.0,90,0.00,,,0.00,VWS V14.01,2015-01-31 07:47:00,
2015-01-31 02:52:00,9.4,7.1,30.39,North,349,1.0,2.0,90,0.00,,,0.00,VWS V14.01,2015-01-31 07:52:00,
2015-01-31 02:57:00,9.3,7.0,30.39,North,349,1.0,2.0,90,0.00,,,0.00,VWS V14.01,2015-01-31 07:57:00,
2015-01-31 03:02:00,9.2,6.9,30.39,North,349,1.0,2.0,90,0.00,,,0.00,VWS V14.01,2015-01-31 08:02:00,
2015-01-31 03:08:00,9.1,6.8,30.39,North,349,1.0,2.0,90,0.00,,,0.00,VWS V14.01,2015-01-31 08:08:00,
2015-01-31 03:13:00,9.0,6.9,30.38,North,349,1.0,2.0,91,0.00,,,0.00,VWS V14.01,2015-01-31 08:13:00,
2015-01-31 03:18:00,8.9,6.6,30.38,North,349,1.0,2.0,90,0.00,,,0.00,VWS V14.01,2015-01-31 08:18:00,
2015-01-31 03:23:00,8.7,6.6,30.38,North,349,1.0,2.0,91,0.00,,,0.00,VWS V14.01,2015-01-31 08:23:00,
2015-01-31 03:28:00,8.7,6.6,30.38,North,349,1.0,2.0,91,0.00,,,0.00,VWS V14.01,2015-01-31 08:28:00,
2015-01-31 03:33:00,8.7,6.6,30.38,North,349,1.0,2.0,91,0.00,,,0.00,VWS V14.01,2015-01-31 08:33:00,
2015-01-31 03:38:00,8.6,6.5,30.38,North,349,1.0,2.0,91,0.00,,,0.00,VWS V14.01,2015-01-31 08:38:00,
2015-01-31 03:43:00,8.5,6.4,30.38,North,349,1.0,2.0,91,0.00,,,0.00,VWS V14.01,2015-01-31 08:43:00,
2015-01-31 03:48:00,8.4,6.1,30.38,North,349,1.0,2.0,90,0.00,,,0.00,VWS V14.01,2015-01-31 08:48:00,
2015-01-31 03:53:00,8.2,5.9,30.38,North,349,1.0,3.0,90,0.00,,,0.00,VWS V14.01,2015-01-31 08:53:00,
2015-01-31 03:58:00,8.1,5.8,30.38,North,349,1.0,3.0,90,0.00,,,0.00,VWS V14.01,2015-01-31 08:58:00,
2015-01-31 04:03:00,8.0,5.7,30.38,North,349,1.0,2.0,90,0.00,,,0.00,VWS V14.01,2015-01-31 09:03:00,
2015-01-31 04:08:00,7.9,5.6,30.38,North,349,1.0,2.0,90,0.00,,,0.00,VWS V14.01,2015-01-31 09:08:00,
2015-01-31 04:13:00,7.8,5.5,30.38,North,349,1.0,3.0,90,0.00,,,0.00,VWS V14.01,2015-01-31 09:13:00,
2015-01-31 04:18:00,7.7,5.6,30.38,North,349,1.0,3.0,91,0.00,,,0.00,VWS V14.01,2015-01-31 09:18:00,
2015-01-31 04:23:00,7.6,5.5,30.38,North,349,1.0,3.0,91,0.00,,,0.00,VWS V14.01,2015-01-31 09:23:00,
2015-01-31 04:28:00,7.6,5.5,30.38,North,349,1.0,3.0,91,0.00,,,0.00,VWS V14.01,2015-01-31 09:28:00,
2015-01-31 04:33:00,7.6,5.5,30.37,North,349,1.0,2.0,91,0.00,,,0.00,VWS V14.01,2015-01-31 09:33:00,
2015-01-31 04:38:00,7.5,5.4,30.37,North,349,2.0,3.0,91,0.00,,,0.00,VWS V14.01,2015-01-31 09:38:00,
2015-01-31 04:43:00,7.4,5.3,30.36,North,349,1.0,3.0,91,0.00,,,0.00,VWS V14.01,2015-01-31 09:43:00,
2015-01-31 04:49:00,7.3,5.2,30.36,North,349,1.0,3.0,91,0.00,,,0.00,VWS V14.01,2015-01-31 09:49:00,
2015-01-31 04:54:00,7.3,5.2,30.36,North,349,1.0,3.0,91,0.00,,,0.00,VWS V14.01,2015-01-31 09:54:00,
2015-01-31 04:59:00,7.3,5.2,30.36,North,349,1.0,3.0,91,0.00,,,0.00,VWS V14.01,2015-01-31 09:59:00,
2015-01-31 05:04:00,7.2,5.1,30.36,North,349,1.0,2.0,91,0.00,,,0.00,VWS V14.01,2015-01-31 10:04:00,
2015-01-31 05:09:00,7.1,5.0,30.36,North,349,1.0,2.0,91,0.00,,,0.00,VWS V14.01,2015-01-31 10:09:00,
2015-01-31 05:14:00,7.3,5.2,30.36,North,349,1.0,2.0,91,0.00,,,0.00,VWS V14.01,2015-01-31 10:14:00,
2015-01-31 05:19:00,7.6,5.8,30.36,North,349,1.0,3.0,92,0.00,,,0.00,VWS V14.01,2015-01-31 10:19:00,
2015-01-31 05:24:00,7.8,6.0,30.36,North,349,1.0,3.0,92,0.00,,,0.00,VWS V14.01,2015-01-31 10:24:00,
2015-01-31 05:29:00,7.9,6.1,30.37,North,349,1.0,3.0,92,0.00,,,0.00,VWS V14.01,2015-01-31 10:29:00,
2015-01-31 05:34:00,8.0,6.2,30.36,North,349,1.0,2.0,92,0.00,,,0.00,VWS V14.01,2015-01-31 10:34:00,
2015-01-31 05:39:00,8.0,5.9,30.36,North,349,1.0,2.0,91,0.00,,,0.00,VWS V14.01,2015-01-31 10:39:00,
2015-01-31 05:44:00,7.8,5.7,30.35,North,349,1.0,2.0,91,0.00,,,0.00,VWS V14.01,2015-01-31 10:44:00,
2015-01-31 05:49:00,7.7,5.4,30.35,North,349,1.0,2.0,90,0.00,,,0.00,VWS V14.01,2015-01-31 10:49:00,
2015-01-31 05:54:00,7.6,5.3,30.34,North,349,1.0,2.0,90,0.00,,,0.00,VWS V14.01,2015-01-31 10:54:00,
2015-01-31 05:59:00,7.6,5.5,30.34,North,349,1.0,2.0,91,0.00,,,0.00,VWS V14.01,2015-01-31 10:59:00,
2015-01-31 06:04:00,7.6,5.5,30.34,North,349,1.0,2.0,91,0.00,,,0.00,VWS V14.01,2015-01-31 11:04:00,
2015-01-31 06:09:00,7.8,5.7,30.34,North,349,1.0,4.0,91,0.00,,,0.00,VWS V14.01,2015-01-31 11:09:00,
2015-01-31 06:14:00,7.9,5.8,30.34,North,349,1.0,4.0,91,0.00,,,0.00,VWS V14.01,2015-01-31 11:14:00,
2015-01-31 06:19:00,8.0,5.9,30.34,West,277,3.0,4.0,91,0.00,,,0.00,VWS V14.01,2015-01-31 11:19:00,
2015-01-31 06:24:00,8.1,6.0,30.34,West,277,1.0,4.0,91,0.00,,,0.00,VWS V14.01,2015-01-31 11:24:00,
2015-01-31 06:30:00,8.3,6.2,30.34,West,277,1.0,4.0,91,0.00,,,0.00,VWS V14.01,2015-01-31 11:30:00,
2015-01-31 06:35:00,8.4,6.3,30.34,West,277,1.0,2.0,91,0.00,,,0.00,VWS V14.01,2015-01-31 11:35:00,
2015-01-31 06:40:00,8.7,6.9,30.33,West,277,1.0,3.0,92,0.00,,,0.00,VWS V14.01,2015-01-31 11:40:00,
2015-01-31 06:45:00,9.0,7.2,30.33,West,277,2.0,3.0,92,0.00,,,0.00,VWS V14.01,2015-01-31 11:45:00,
2015-01-31 06:50:00,9.2,7.3,30.33,West,277,1.0,3.0,92,0.00,,,0.00,VWS V14.01,2015-01-31 11:50:00,
2015-01-31 06:55:00,9.5,7.7,30.32,West,277,1.0,3.0,92,0.00,,,0.00,VWS V14.01,2015-01-31 11:55:00,
2015-01-31 07:00:00,10.0,8.4,30.33,WSW,238,1.0,3.0,93,0.00,,,0.00,VWS V14.01,2015-01-31 12:00:00,
2015-01-31 07:05:00,10.5,8.9,30.33,WSW,238,1.0,3.0,93,0.00,,,0.00,VWS V14.01,2015-01-31 12:05:00,
2015-01-31 07:10:00,11.0,9.4,30.33,WSW,238,1.0,3.0,93,0.00,,,0.00,VWS V14.01,2015-01-31 12:10:00,
2015-01-31 07:15:00,11.2,9.6,30.33,WSW,238,1.0,3.0,93,0.00,,,0.00,VWS V14.01,2015-01-31 12:15:00,
2015-01-31 07:20:00,11.4,9.5,30.33,WSW,238,1.0,3.0,92,0.00,,,0.00,VWS V14.01,2015-01-31 12:20:00,
2015-01-31 07:25:00,11.6,9.7,30.33,WSW,238,1.0,3.0,92,0.00,,,0.00,VWS V14.01,2015-01-31 12:25:00,
2015-01-31 07:30:00,11.9,10.0,30.33,WSW,238,1.0,3.0,92,0.00,,,0.00,VWS V14.01,2015-01-31 12:30:00,
2015-01-31 07:35:00,12.0,10.1,30.33,WSW,238,1.0,3.0,92,0.00,,,0.00,VWS V14.01,2015-01-31 12:35:00,
2015-01-31 07:40:00,12.3,10.7,30.33,WSW,238,1.0,3.0,93,0.00,,,0.00,VWS V14.01,2015-01-31 12:40:00,
2015-01-31 07:45:00,12.6,11.0,30.33,WSW,238,1.0,3.0,93,0.00,,,0.00,VWS V14.01,2015-01-31 12:45:00,
2015-01-31 07:50:00,13.0,11.4,30.33,WSW,238,2.0,3.0,93,0.00,,,0.00,VWS V14.01,2015-01-31 12:50:00,
2015-01-31 07:55:00,13.4,11.5,30.33,WSW,238,1.0,3.0,92,0.00,,,0.00,VWS V14.01,2015-01-31 12:55:00,
2015-01-31 08:00:00,13.4,11.5,30.32,WSW,238,1.0,4.0,92,0.00,,,0.00,VWS V14.01,2015-01-31 13:00:00,
2015-01-31 08:05:00,13.6,11.7,30.32,WSW,238,1.0,3.0,92,0.00,,,0.00,VWS V14.01,2015-01-31 13:05:00,
2015-01-31 08:11:00,13.8,11.9,30.32,WSW,238,1.0,3.0,92,0.00,,,0.00,VWS V14.01,2015-01-31 13:11:00,
2015-01-31 08:16:00,14.1,12.2,30.32,WSW,238,1.0,3.0,92,0.00,,,0.00,VWS V14.01,2015-01-31 13:16:00,
2015-01-31 08:21:00,14.4,12.5,30.32,WSW,238,1.0,3.0,92,0.00,,,0.00,VWS V14.01,2015-01-31 13:21:00,
2015-01-31 08:26:00,14.7,12.8,30.32,WSW,238,1.0,3.0,92,0.00,,,0.00,VWS V14.01,2015-01-31 13:26:00,
2015-01-31 08:31:00,15.0,13.1,30.32,WSW,238,1.0,3.0,92,0.00,,,0.00,VWS V14.01,2015-01-31 13:31:00,
2015-01-31 08:36:00,15.3,13.4,30.33,WSW,238,1.0,2.0,92,0.00,,,0.00,VWS V14.01,2015-01-31 13:36:00,
2015-01-31 08:41:00,15.4,13.2,30.33,WSW,238,1.0,2.0,91,0.00,,,0.00,VWS V14.01,2015-01-31 13:41:00,
2015-01-31 08:46:00,15.5,13.4,30.32,WSW,238,1.0,2.0,91,0.00,,,0.00,VWS V14.01,2015-01-31 13:46:00,
2015-01-31 08:51:00,15.7,13.5,30.32,WSW,238,1.0,2.0,91,0.00,,,0.00,VWS V14.01,2015-01-31 13:51:00,
2015-01-31 08:56:00,15.9,13.7,30.32,WSW,238,1.0,2.0,91,0.00,,,0.00,VWS V14.01,2015-01-31 13:56:00,
2015-01-31 09:01:00,16.3,14.1,30.32,WSW,238,1.0,2.0,91,0.00,,,0.00,VWS V14.01,2015-01-31 14:01:00,
2015-01-31 09:06:00,16.8,14.6,30.32,WSW,238,1.0,2.0,91,0.00,,,0.00,VWS V14.01,2015-01-31 14:06:00,
2015-01-31 09:11:00,17.2,15.0,30.32,SW,216,2.0,5.0,91,0.00,,,0.00,VWS V14.01,2015-01-31 14:11:00,
2015-01-31 09:16:00,17.7,15.3,30.31,SSW,211,3.0,5.0,90,0.00,,,0.00,VWS V14.01,2015-01-31 14:16:00,
2015-01-31 09:21:00,18.3,15.9,30.32,SW,218,2.0,6.0,90,0.00,,,0.00,VWS V14.01,2015-01-31 14:21:00,
2015-01-31 09:26:00,18.9,16.2,30.31,SSE,153,3.0,6.0,89,0.00,,,0.00,VWS V14.01,2015-01-31 14:26:00,
2015-01-31 09:31:00,19.5,16.5,30.31,SSW,207,4.0,6.0,88,0.00,,,0.00,VWS V14.01,2015-01-31 14:31:00,
2015-01-31 09:36:00,20.1,16.9,30.31,SSW,202,3.0,7.0,87,0.00,,,0.00,VWS V14.01,2015-01-31 14:36:00,
2015-01-31 09:41:00,20.7,17.2,30.31,SSW,202,3.0,7.0,86,0.00,,,0.00,VWS V14.01,2015-01-31 14:41:00,
2015-01-31 09:47:00,21.3,17.5,30.30,South,190,5.0,7.0,85,0.00,,,0.00,VWS V14.01,2015-01-31 14:47:00,
2015-01-31 09:52:00,21.8,17.7,30.30,South,190,2.0,7.0,84,0.00,,,0.00,VWS V14.01,2015-01-31 14:52:00,
2015-01-31 09:57:00,22.3,17.9,30.30,SSW,197,4.0,7.0,83,0.00,,,0.00,VWS V14.01,2015-01-31 14:57:00,
2015-01-31 10:02:00,22.8,18.1,30.29,SW,218,5.0,6.0,82,0.00,,,0.00,VWS V14.01,2015-01-31 15:02:00,
2015-01-31 10:07:00,23.2,18.2,30.29,SW,215,3.0,6.0,81,0.00,,,0.00,VWS V14.01,2015-01-31 15:07:00,
2015-01-31 10:12:00,23.7,18.7,30.29,SW,219,3.0,6.0,81,0.00,,,0.00,VWS V14.01,2015-01-31 15:12:00,
2015-01-31 10:17:00,24.0,18.7,30.29,SSW,213,4.0,7.0,80,0.00,,,0.00,VWS V14.01,2015-01-31 15:17:00,
2015-01-31 10:22:00,24.3,18.7,30.29,South,185,4.0,7.0,79,0.00,,,0.00,VWS V14.01,2015-01-31 15:22:00,
2015-01-31 10:27:00,24.5,18.9,30.29,SSW,198,6.0,7.0,79,0.00,,,0.00,VWS V14.01,2015-01-31 15:27:00,
2015-01-31 10:32:00,24.8,19.2,30.29,SSW,204,5.0,7.0,79,0.00,,,0.00,VWS V14.01,2015-01-31 15:32:00,
2015-01-31 10:37:00,25.0,19.1,30.30,SW,234,3.0,8.0,78,0.00,,,0.00,VWS V14.01,2015-01-31 15:37:00,
2015-01-31 10:42:00,25.4,19.5,30.29,South,184,4.0,8.0,78,0.00,,,0.00,VWS V14.01,2015-01-31 15:42:00,
2015-01-31 10:47:00,25.8,19.9,30.29,South,171,4.0,8.0,78,0.00,,,0.00,VWS V14.01,2015-01-31 15:47:00,
2015-01-31 10:52:00,26.2,20.0,30.29,SW,225,4.0,8.0,77,0.00,,,0.00,VWS V14.01,2015-01-31 15:52:00,
2015-01-31 10:57:00,26.5,20.0,30.28,SW,232,2.0,8.0,76,0.00,,,0.00,VWS V14.01,2015-01-31 15:57:00,
2015-01-31 11:02:00,26.8,20.3,30.28,SSW,200,3.0,8.0,76,0.00,,,0.00,VWS V14.01,2015-01-31 16:02:00,
2015-01-31 11:07:00,26.9,20.4,30.28,SW,220,4.0,8.0,76,0.00,,,0.00,VWS V14.01,2015-01-31 16:07:00,
2015-01-31 11:12:00,27.4,20.8,30.28,SW,215,3.0,8.0,76,0.00,,,0.00,VWS V14.01,2015-01-31 16:12:00,
2015-01-31 11:17:00,27.7,21.1,30.27,SSW,195,3.0,8.0,76,0.00,,,0.00,VWS V14.01,2015-01-31 16:17:00,
2015-01-31 11:23:00,28.1,20.9,30.27,SW,228,3.0,8.0,74,0.00,,,0.00,VWS V14.01,2015-01-31 16:23:00,
2015-01-31 11:28:00,28.4,20.9,30.27,SW,219,4.0,8.0,73,0.00,,,0.00,VWS V14.01,2015-01-31 16:28:00,
2015-01-31 11:33:00,28.6,21.1,30.27,SW,225,4.0,6.0,73,0.00,,,0.00,VWS V14.01,2015-01-31 16:33:00,
2015-01-31 11:38:00,29.1,21.5,30.27,SW,232,5.0,7.0,73,0.00,,,0.00,VWS V14.01,2015-01-31 16:38:00,
2015-01-31 11:43:00,29.2,21.3,30.26,SSW,204,4.0,8.0,72,0.00,,,0.00,VWS V14.01,2015-01-31 16:43:00,
2015-01-31 11:48:00,29.5,21.3,30.26,SSW,205,5.0,8.0,71,0.00,,,0.00,VWS V14.01,2015-01-31 16:48:00,
2015-01-31 11:53:00,29.6,21.4,30.26,SW,234,4.0,8.0,71,0.00,,,0.00,VWS V14.01,2015-01-31 16:53:00,
2015-01-31 11:58:00,30.0,22.1,30.26,SSW,211,6.0,8.0,72,0.00,,,0.00,VWS V14.01,2015-01-31 16:58:00,
2015-01-31 12:03:00,30.4,22.1,30.26,SSW,198,3.0,7.0,71,0.00,,,0.00,VWS V14.01,2015-01-31 17:03:00,
2015-01-31 12:08:00,30.6,21.6,30.25,SSW,199,4.0,8.0,69,0.00,,,0.00,VWS V14.01,2015-01-31 17:08:00,
2015-01-31 12:13:00,30.7,21.8,30.25,WSW,240,5.0,8.0,69,0.00,,,0.00,VWS V14.01,2015-01-31 17:13:00,
2015-01-31 12:18:00,30.7,21.8,30.25,SW,225,5.0,9.0,69,0.00,,,0.00,VWS V14.01,2015-01-31 17:18:00,
2015-01-31 12:23:00,30.9,21.9,30.25,SSW,193,4.0,9.0,69,0.00,,,0.00,VWS V14.01,2015-01-31 17:23:00,
2015-01-31 12:28:00,31.2,22.2,30.25,SSW,196,3.0,9.0,69,0.00,,,0.00,VWS V14.01,2015-01-31 17:28:00,
2015-01-31 12:33:00,31.7,22.4,30.24,SW,220,1.0,7.0,68,0.00,,,0.00,VWS V14.01,2015-01-31 17:33:00,
2015-01-31 12:38:00,32.2,22.8,30.24,NW,315,3.0,7.0,68,0.00,,,0.00,VWS V14.01,2015-01-31 17:38:00,
2015-01-31 12:43:00,32.7,22.2,30.23,WSW,241,5.0,7.0,65,0.00,,,0.00,VWS V14.01,2015-01-31 17:43:00,
2015-01-31 12:48:00,32.9,22.1,30.23,WSW,242,4.0,9.0,64,0.00,,,0.00,VWS V14.01,2015-01-31 17:48:00,
2015-01-31 12:53:00,33.3,22.8,30.23,WNW,290,2.0,9.0,65,0.00,,,0.00,VWS V14.01,2015-01-31 17:53:00,
2015-01-31 12:58:00,33.5,22.6,30.22,NW,325,3.0,9.0,64,0.00,,,0.00,VWS V14.01,2015-01-31 17:58:00,
2015-01-31 13:04:00,33.6,22.0,30.22,South,188,6.0,9.0,62,0.00,,,0.00,VWS V14.01,2015-01-31 18:04:00,
2015-01-31 13:09:00,33.5,21.9,30.22,SSW,207,4.0,11.0,62,0.00,,,0.00,VWS V14.01,2015-01-31 18:09:00,
2015-01-31 13:14:00,33.2,21.6,30.22,WSW,244,5.0,11.0,62,0.00,,,0.00,VWS V14.01,2015-01-31 18:14:00,
2015-01-31 13:19:00,33.1,21.5,30.22,WSW,238,5.0,11.0,62,0.00,,,0.00,VWS V14.01,2015-01-31 18:19:00,
2015-01-31 13:24:00,33.1,21.5,30.22,SSW,195,5.0,11.0,62,0.00,,,0.00,VWS V14.01,2015-01-31 18:24:00,
2015-01-31 13:29:00,32.9,21.3,30.22,SW,221,5.0,11.0,62,0.01,,,0.01,VWS V14.01,2015-01-31 18:29:00,
2015-01-31 13:34:00,32.8,21.2,30.22,SSW,199,3.0,6.0,62,0.01,,,0.01,VWS V14.01,2015-01-31 18:34:00,
2015-01-31 13:39:00,32.8,21.2,30.21,SSW,202,4.0,8.0,62,0.01,,,0.01,VWS V14.01,2015-01-31 18:39:00,
2015-01-31 13:44:00,32.7,21.1,30.21,WSW,252,2.0,8.0,62,0.01,,,0.01,VWS V14.01,2015-01-31 18:44:00,
2015-01-31 13:49:00,32.7,21.1,30.21,WSW,245,4.0,8.0,62,0.01,,,0.01,VWS V14.01,2015-01-31 18:49:00,
2015-01-31 13:54:00,32.8,21.6,30.21,WSW,244,3.0,8.0,63,0.01,,,0.01,VWS V14.01,2015-01-31 18:54:00,
2015-01-31 13:59:00,32.9,21.3,30.21,WSW,239,4.0,8.0,62,0.01,,,0.01,VWS V14.01,2015-01-31 18:59:00,
2015-01-31 14:04:00,32.9,21.3,30.20,SW,222,4.0,7.0,62,0.01,,,0.01,VWS V14.01,2015-01-31 19:04:00,
2015-01-31 14:09:00,32.8,20.9,30.20,SW,229,4.0,7.0,61,0.01,,,0.01,VWS V14.01,2015-01-31 19:09:00,
2015-01-31 14:14:00,32.9,20.9,30.20,SW,217,4.0,7.0,61,0.01,,,0.01,VWS V14.01,2015-01-31 19:14:00,
2015-01-31 14:19:00,32.9,20.9,30.20,WSW,250,5.0,9.0,61,0.01,,,0.01,VWS V14.01,2015-01-31 19:19:00,
2015-01-31 14:24:00,32.9,20.5,30.20,SW,229,4.0,9.0,60,0.01,,,0.01,VWS V14.01,2015-01-31 19:24:00,
2015-01-31 14:29:00,33.0,21.0,30.20,SW,227,4.0,9.0,61,0.01,,,0.01,VWS V14.01,2015-01-31 19:29:00,
2015-01-31 14:34:00,33.2,22.0,30.20,SSE,168,3.0,6.0,63,0.00,,,0.01,VWS V14.01,2015-01-31 19:34:00,
2015-01-31 14:40:00,33.5,22.3,30.20,SSW,206,3.0,6.0,63,0.00,,,0.01,VWS V14.01,2015-01-31 19:40:00,
2015-01-31 14:45:00,33.6,22.0,30.20,WSW,240,3.0,7.0,62,0.00,,,0.01,VWS V14.01,2015-01-31 19:45:00,
2015-01-31 14:50:00,33.9,22.3,30.20,SW,226,3.0,7.0,62,0.00,,,0.01,VWS V14.01,2015-01-31 19:50:00,
2015-01-31 14:55:00,34.0,22.4,30.20,SW,217,4.0,7.0,62,0.00,,,0.01,VWS V14.01,2015-01-31 19:55:00,
2015-01-31 15:00:00,34.0,22.0,30.20,SSW,211,4.0,7.0,61,0.00,,,0.01,VWS V14.01,2015-01-31 20:00:00,
2015-01-31 15:05:00,34.0,22.4,30.20,SSW,210,4.0,6.0,62,0.00,,,0.01,VWS V14.01,2015-01-31 20:05:00,
2015-01-31 15:10:00,34.1,22.5,30.20,SW,216,3.0,6.0,62,0.00,,,0.01,VWS V14.01,2015-01-31 20:10:00,
2015-01-31 15:15:00,34.1,22.1,30.20,SSW,200,3.0,8.0,61,0.00,,,0.01,VWS V14.01,2015-01-31 20:15:00,
2015-01-31 15:20:00,34.2,22.9,30.20,SSW,210,4.0,8.0,63,0.00,,,0.01,VWS V14.01,2015-01-31 20:20:00,
2015-01-31 15:25:00,34.3,22.3,30.20,WSW,246,3.0,8.0,61,0.00,,,0.01,VWS V14.01,2015-01-31 20:25:00,
2015-01-31 15:30:00,34.2,22.2,30.20,South,184,4.0,8.0,61,0.00,,,0.01,VWS V14.01,2015-01-31 20:30:00,
2015-01-31 15:35:00,34.2,22.5,30.20,SW,223,1.0,6.0,62,0.00,,,0.01,VWS V14.01,2015-01-31 20:35:00,
2015-01-31 15:40:00,34.3,22.3,30.20,SW,215,2.0,6.0,61,0.00,,,0.01,VWS V14.01,2015-01-31 20:40:00,
2015-01-31 15:45:00,34.3,22.3,30.20,SSW,202,4.0,6.0,61,0.00,,,0.01,VWS V14.01,2015-01-31 20:45:00,
2015-01-31 15:50:00,34.3,22.6,30.20,SW,221,2.0,6.0,62,0.00,,,0.01,VWS V14.01,2015-01-31 20:50:00,
2015-01-31 15:55:00,34.3,23.0,30.20,SW,229,2.0,6.0,63,0.00,,,0.01,VWS V14.01,2015-01-31 20:55:00,
2015-01-31 16:00:00,34.3,22.3,30.20,SSW,208,3.0,6.0,61,0.00,,,0.01,VWS V14.01,2015-01-31 21:00:00,
2015-01-31 16:05:00,34.4,23.1,30.20,SW,224,4.0,6.0,63,0.00,,,0.01,VWS V14.01,2015-01-31 21:05:00,
2015-01-31 16:10:00,34.4,22.7,30.20,WSW,240,4.0,6.0,62,0.00,,,0.01,VWS V14.01,2015-01-31 21:10:00,
2015-01-31 16:15:00,34.4,22.4,30.20,SW,234,4.0,6.0,61,0.00,,,0.01,VWS V14.01,2015-01-31 21:15:00,
2015-01-31 16:21:00,34.5,22.5,30.19,SW,227,3.0,6.0,61,0.00,,,0.01,VWS V14.01,2015-01-31 21:21:00,
2015-01-31 16:26:00,34.5,22.1,30.19,SW,218,2.0,6.0,60,0.00,,,0.01,VWS V14.01,2015-01-31 21:26:00,
2015-01-31 16:31:00,34.6,22.2,30.19,SW,223,2.0,6.0,60,0.00,,,0.01,VWS V14.01,2015-01-31 21:31:00,
2015-01-31 16:36:00,34.5,22.5,30.19,SSW,211,2.0,6.0,61,0.00,,,0.01,VWS V14.01,2015-01-31 21:36:00,
2015-01-31 16:41:00,34.6,22.5,30.19,SW,215,2.0,7.0,61,0.00,,,0.01,VWS V14.01,2015-01-31 21:41:00,
2015-01-31 16:46:00,34.6,22.5,30.19,SW,231,2.0,7.0,61,0.00,,,0.01,VWS V14.01,2015-01-31 21:46:00,
2015-01-31 16:51:00,34.5,22.8,30.19,WSW,245,3.0,7.0,62,0.00,,,0.01,VWS V14.01,2015-01-31 21:51:00,
2015-01-31 16:56:00,34.5,22.8,30.19,SW,234,2.0,7.0,62,0.00,,,0.01,VWS V14.01,2015-01-31 21:56:00,
2015-01-31 17:01:00,34.5,22.8,30.19,SSW,196,2.0,3.0,62,0.00,,,0.01,VWS V14.01,2015-01-31 22:01:00,
2015-01-31 17:06:00,34.4,22.7,30.19,SSW,205,3.0,4.0,62,0.00,,,0.01,VWS V14.01,2015-01-31 22:06:00,
2015-01-31 17:11:00,34.4,22.7,30.20,SSW,205,2.0,4.0,62,0.00,,,0.01,VWS V14.01,2015-01-31 22:11:00,
2015-01-31 17:16:00,34.4,22.7,30.20,SSW,205,3.0,4.0,62,0.00,,,0.01,VWS V14.01,2015-01-31 22:16:00,
2015-01-31 17:21:00,34.4,23.1,30.20,SSW,205,2.0,4.0,63,0.00,,,0.01,VWS V14.01,2015-01-31 22:21:00,
2015-01-31 17:26:00,34.3,23.0,30.20,SSW,205,3.0,5.0,63,0.00,,,0.01,VWS V14.01,2015-01-31 22:26:00,
2015-01-31 17:31:00,34.3,22.6,30.20,SW,227,2.0,5.0,62,0.00,,,0.01,VWS V14.01,2015-01-31 22:31:00,
2015-01-31 17:36:00,34.3,23.0,30.20,SSW,203,2.0,5.0,63,0.00,,,0.01,VWS V14.01,2015-01-31 22:36:00,
2015-01-31 17:41:00,34.3,23.0,30.20,SSW,203,3.0,5.0,63,0.00,,,0.01,VWS V14.01,2015-01-31 22:41:00,
2015-01-31 17:46:00,34.3,23.0,30.20,SSW,203,1.0,5.0,63,0.00,,,0.01,VWS V14.01,2015-01-31 22:46:00,
2015-01-31 17:51:00,34.2,22.9,30.20,SSW,194,3.0,5.0,63,0.00,,,0.01,VWS V14.01,2015-01-31 22:51:00,
2015-01-31 17:57:00,34.2,23.3,30.20,SSW,194,2.0,5.0,64,0.00,,,0.01,VWS V14.01,2015-01-31 22:57:00,
2015-01-31 18:02:00,34.1,23.2,30.20,SSW,194,2.0,3.0,64,0.00,,,0.01,VWS V14.01,2015-01-31 23:02:00,
2015-01-31 18:07:00,34.1,23.2,30.20,SSW,194,1.0,4.0,64,0.00,,,0.01,VWS V14.01,2015-01-31 23:07:00,
2015-01-31 18:12:00,33.9,23.8,30.20,SSW,194,1.0,4.0,66,0.00,,,0.01,VWS V14.01,2015-01-31 23:12:00,
2015-01-31 18:17:00,33.8,23.7,30.20,SSW,194,1.0,4.0,66,0.00,,,0.01,VWS V14.01,2015-01-31 23:17:00,
2015-01-31 18:22:00,33.7,23.2,30.20,SSW,194,1.0,4.0,65,0.00,,,0.01,VWS V14.01,2015-01-31 23:22:00,
2015-01-31 18:27:00,33.7,23.6,30.20,SSW,194,1.0,4.0,66,0.00,,,0.01,VWS V14.01,2015-01-31 23:27:00,
2015-01-31 18:32:00,33.6,23.5,30.20,SSW,194,1.0,2.0,66,0.00,,,0.01,VWS V14.01,2015-01-31 23:32:00,
2015-01-31 18:37:00,33.5,23.7,30.20,SSW,194,1.0,2.0,67,0.00,,,0.01,VWS V14.01,2015-01-31 23:37:00,
2015-01-31 18:42:00,33.4,24.0,30.20,SSW,194,1.0,2.0,68,0.00,,,0.01,VWS V14.01,2015-01-31 23:42:00,
2015-01-31 18:47:00,33.3,23.5,30.20,SSW,194,1.0,2.0,67,0.00,,,0.01,VWS V14.01,2015-01-31 23:47:00,
2015-01-31 18:52:00,33.2,23.5,30.20,SSW,194,1.0,2.0,67,0.00,,,0.01,VWS V14.01,2015-01-31 23:52:00,
2015-01-31 18:57:00,33.1,23.4,30.21,SSW,194,1.0,2.0,67,0.00,,,0.01,VWS V14.01,2015-01-31 23:57:00,
2015-01-31 19:02:00,33.0,23.2,30.20,SSW,194,1.0,2.0,67,0.00,,,0.01,VWS V14.01,2015-02-01 00:02:00,
2015-01-31 19:07:00,33.0,23.2,30.20,SSW,194,1.0,2.0,67,0.00,,,0.01,VWS V14.01,2015-02-01 00:07:00,
2015-01-31 19:12:00,32.9,23.5,30.20,SSW,194,1.0,2.0,68,0.00,,,0.01,VWS V14.01,2015-02-01 00:12:00,
2015-01-31 19:17:00,32.9,23.5,30.20,SSW,194,1.0,2.0,68,0.00,,,0.01,VWS V14.01,2015-02-01 00:17:00,
2015-01-31 19:22:00,32.8,23.8,30.20,SSW,194,1.0,2.0,69,0.00,,,0.01,VWS V14.01,2015-02-01 00:22:00,
2015-01-31 19:27:00,32.8,23.4,30.20,SSW,194,1.0,2.0,68,0.00,,,0.01,VWS V14.01,2015-02-01 00:27:00,
2015-01-31 19:32:00,32.7,23.3,30.20,SSW,194,1.0,2.0,68,0.00,,,0.01,VWS V14.01,2015-02-01 00:32:00,
2015-01-31 19:38:00,32.6,23.6,30.20,SSW,194,1.0,2.0,69,0.00,,,0.01,VWS V14.01,2015-02-01 00:38:00,
2015-01-31 19:43:00,32.5,23.5,30.20,SSW,194,1.0,2.0,69,0.00,,,0.01,VWS V14.01,2015-02-01 00:43:00,
2015-01-31 19:48:00,32.4,23.7,30.20,SSW,194,1.0,2.0,70,0.00,,,0.01,VWS V14.01,2015-02-01 00:48:00,
2015-01-31 19:53:00,32.5,23.5,30.20,SSW,194,1.0,3.0,69,0.00,,,0.01,VWS V14.01,2015-02-01 00:53:00,
2015-01-31 19:58:00,32.5,23.8,30.20,SSW,194,1.0,3.0,70,0.00,,,0.01,VWS V14.01,2015-02-01 00:58:00,
2015-01-31 20:03:00,32.5,23.8,30.20,SSW,194,1.0,2.0,70,0.00,,,0.01,VWS V14.01,2015-02-01 01:03:00,
2015-01-31 20:08:00,32.4,23.7,30.20,SSW,194,1.0,2.0,70,0.00,,,0.01,VWS V14.01,2015-02-01 01:08:00,
2015-01-31 20:13:00,32.4,23.4,30.20,SSW,194,1.0,2.0,69,0.00,,,0.01,VWS V14.01,2015-02-01 01:13:00,
2015-01-31 20:18:00,32.4,23.7,30.20,SSW,194,1.0,3.0,70,0.00,,,0.01,VWS V14.01,2015-02-01 01:18:00,
2015-01-31 20:23:00,32.4,24.4,30.20,SSW,194,1.0,3.0,72,0.00,,,0.01,VWS V14.01,2015-02-01 01:23:00,
2015-01-31 20:28:00,32.3,24.0,30.20,SSW,194,1.0,3.0,71,0.00,,,0.01,VWS V14.01,2015-02-01 01:28:00,
2015-01-31 20:33:00,32.3,25.0,30.20,SSW,194,1.0,2.0,74,0.00,,,0.01,VWS V14.01,2015-02-01 01:33:00,
2015-01-31 20:38:00,32.2,24.9,30.20,SSW,194,1.0,2.0,74,0.00,,,0.01,VWS V14.01,2015-02-01 01:38:00,
2015-01-31 20:43:00,32.1,24.4,30.21,SSW,194,1.0,2.0,73,0.00,,,0.01,VWS V14.01,2015-02-01 01:43:00,
2015-01-31 20:48:00,32.0,24.7,30.20,SSW,194,1.0,2.0,74,0.00,,,0.01,VWS V14.01,2015-02-01 01:48:00,
2015-01-31 20:53:00,31.9,24.2,30.20,SSW,194,1.0,2.0,73,0.00,,,0.01,VWS V14.01,2015-02-01 01:53:00,
2015-01-31 20:58:00,31.8,24.5,30.20,SSW,194,1.0,2.0,74,0.00,,,0.01,VWS V14.01,2015-02-01 01:58:00,
2015-01-31 21:03:00,31.7,24.0,30.20,SSW,194,1.0,2.0,73,0.00,,,0.01,VWS V14.01,2015-02-01 02:03:00,
2015-01-31 21:09:00,31.6,24.3,30.20,SSW,194,1.0,2.0,74,0.00,,,0.01,VWS V14.01,2015-02-01 02:09:00,
2015-01-31 21:14:00,31.5,23.9,30.19,SSW,194,1.0,2.0,73,0.00,,,0.01,VWS V14.01,2015-02-01 02:14:00,
2015-01-31 21:19:00,31.5,23.9,30.19,SSW,194,1.0,2.0,73,0.00,,,0.01,VWS V14.01,2015-02-01 02:19:00,
2015-01-31 21:24:00,31.4,23.8,30.19,SSW,194,1.0,2.0,73,0.00,,,0.01,VWS V14.01,2015-02-01 02:24:00,
2015-01-31 21:29:00,31.3,23.7,30.19,SSW,194,1.0,2.0,73,0.00,,,0.01,VWS V14.01,2015-02-01 02:29:00,
2015-01-31 21:34:00,31.3,23.7,30.19,SSW,194,1.0,2.0,73,0.00,,,0.01,VWS V14.01,2015-02-01 02:34:00,
2015-01-31 21:39:00,31.3,24.6,30.19,SSW,194,1.0,2.0,76,0.00,,,0.01,VWS V14.01,2015-02-01 02:39:00,
2015-01-31 21:44:00,31.2,24.5,30.19,SSW,194,1.0,2.0,76,0.00,,,0.01,VWS V14.01,2015-02-01 02:44:00,
2015-01-31 21:49:00,31.1,24.4,30.19,SSW,194,1.0,2.0,76,0.00,,,0.01,VWS V14.01,2015-02-01 02:49:00,
2015-01-31 21:54:00,31.1,24.4,30.18,SSW,194,1.0,2.0,76,0.00,,,0.01,VWS V14.01,2015-02-01 02:54:00,
2015-01-31 21:59:00,31.0,24.6,30.19,SSW,194,1.0,2.0,77,0.00,,,0.01,VWS V14.01,2015-02-01 02:59:00,
2015-01-31 22:04:00,30.9,24.5,30.18,SSW,194,1.0,2.0,77,0.00,,,0.01,VWS V14.01,2015-02-01 03:04:00,
2015-01-31 22:09:00,30.8,24.5,30.18,SSW,194,1.0,2.0,77,0.00,,,0.01,VWS V14.01,2015-02-01 03:09:00,
2015-01-31 22:14:00,30.8,24.5,30.18,SSW,194,1.0,2.0,77,0.00,,,0.01,VWS V14.01,2015-02-01 03:14:00,
2015-01-31 22:19:00,30.8,25.1,30.18,SSW,194,1.0,2.0,79,0.00,,,0.01,VWS V14.01,2015-02-01 03:19:00,
2015-01-31 22:24:00,30.8,25.4,30.18,SSW,194,1.0,2.0,80,0.00,,,0.01,VWS V14.01,2015-02-01 03:24:00,
2015-01-31 22:29:00,30.7,25.3,30.18,SSW,194,1.0,2.0,80,0.00,,,0.01,VWS V14.01,2015-02-01 03:29:00,
2015-01-31 22:34:00,30.6,24.9,30.18,SSW,194,1.0,2.0,79,0.00,,,0.01,VWS V14.01,2015-02-01 03:34:00,
2015-01-31 22:39:00,30.6,24.6,30.18,SSW,194,1.0,2.0,78,0.00,,,0.01,VWS V14.01,2015-02-01 03:39:00,
2015-01-31 22:45:00,30.5,24.5,30.18,SSW,194,1.0,2.0,78,0.00,,,0.01,VWS V14.01,2015-02-01 03:45:00,
2015-01-31 22:50:00,30.5,24.5,30.18,SSW,194,1.0,2.0,78,0.00,,,0.01,VWS V14.01,2015-02-01 03:50:00,
2015-01-31 22:55:00,30.5,24.2,30.18,SSW,194,1.0,2.0,77,0.00,,,0.01,VWS V14.01,2015-02-01 03:55:00,
2015-01-31 23:00:00,30.5,24.2,30.18,SSW,194,1.0,2.0,77,0.00,,,0.01,VWS V14.01,2015-02-01 04:00:00,
2015-01-31 23:05:00,30.5,24.5,30.18,SSW,194,2.0,3.0,78,0.00,,,0.01,VWS V14.01,2015-02-01 04:05:00,
2015-01-31 23:10:00,30.5,24.8,30.18,SSW,194,1.0,3.0,79,0.00,,,0.01,VWS V14.01,2015-02-01 04:10:00,
2015-01-31 23:15:00,30.5,24.8,30.18,SSW,194,1.0,3.0,79,0.00,,,0.01,VWS V14.01,2015-02-01 04:15:00,
2015-01-31 23:20:00,30.4,24.7,30.18,SSW,194,1.0,3.0,79,0.00,,,0.01,VWS V14.01,2015-02-01 04:20:00,